User: anonymous   Login
Location: Oshawa
(43.9000°N, 78.8670°W)
Time: 16:44:08
(UTC-04:00)
Language:

Cosmos 1805 Rocket - Orbit

View from above orbital plane
View from above orbital plane
View from above satellite
View from above satellite

Ground track
Ground track

The orbit data is extracted from the following two-line orbital elements,

1 17192U 86097B   17142.89018069 +.00000087 +00000-0 +77047-5 0  9991
2 17192 082.5059 280.2437 0016921 179.7172 295.1190 14.83501870623836
Epoch (UTC): 22 May 2017 21:21:51
Eccentricity: 0.0016921
inclination: 82.5059°
perigee height: 606 km
apogee height: 630 km
right ascension of ascending node: 280.2437°
argument of perigee: 179.7172°
revolutions per day: 14.83501870
mean anomaly at epoch: 295.1190°
orbit number at epoch: 62383

The dashed part of the orbit path shows where the satellite is in the earth's shadow,  

DLR